Home > Weather > Bellingham > Past weeks

Flag for USA Weather for the Past 2 Weeks in Bellingham, Washington, USA

Now
48 °F

Sunny.


Feels Like: 46 °F
Forecast: 46 / 63 °F
Wind: 5 mph from Southeast

Location: Bellingham International Airport

Current Time: Apr 30, 2016 at 8:06:42 AM

Latest Report: Apr 30, 2016 at 6:53 AM


Visibility: 10 mi

Pressure: 30.36 "Hg

Humidity: 86%

Dew Point: 44 °F

Location of BellinghamLocation

Historic Weather in Bellingham — Graph

°F

Bellingham Temperature Yesterday

Maximum temperature yesterday: 60 °F (at 2:53 PM)
Minimum temperature yesterday: 46 °F (at 11:53 PM)
Average temperature yesterday: 54 °F

High & Low Weather Summary for the Past Weeks

 TemperatureHumidityPressure
High83 °F (Apr 18, 3:53 PM)97% (Apr 16, 2:53 AM)30.37 "Hg (Apr 16, 2:53 AM)
Low40 °F (Apr 16, 6:53 AM)30% (Apr 18, 2:53 PM)29.60 "Hg (Apr 22, 3:53 AM)
Average55 °F73%30.05 "Hg
* Reported Apr 15 5:53 AM — Apr 30 5:53 AM, Bellingham, Weather by CustomWeather, © 2016

Note: Actual official high and low records may vary slightly from our data, if they occured in-between our weather recording intervals... More about our weather records

Advertising

Bellingham Weather History for the Previous 24 Hours

Scroll right to see more
 ConditionsComfort  
Time TempWeatherWind HumidityBarometerVisibility
5:53 AM
Sat, Apr 30
46 °FClear.5 mph93%30.34 "Hg10 mi
4:53 AM44 °FClear.No wind89%30.32 "Hg10 mi
3:53 AM45 °FClear.No wind86%30.31 "Hg10 mi
2:53 AM48 °FClear.No wind86%30.30 "Hg10 mi
1:53 AM51 °FClear.9 mph83%30.28 "Hg10 mi
12:53 AM45 °FClear.No wind93%30.26 "Hg10 mi
11:53 PM
Fri, Apr 29
46 °FClear.No wind93%30.25 "Hg10 mi
10:53 PM50 °FPassing clouds.3 mph83%30.23 "Hg10 mi
9:53 PM54 °FClear.5 mph74%30.21 "Hg10 mi
8:53 PM55 °FSunny.7 mph74%30.18 "Hg10 mi
7:53 PM57 °FSunny.5 mph67%30.16 "Hg10 mi
6:53 PM60 °FPassing clouds.7 mph52%30.15 "Hg10 mi
5:53 PM60 °FSunny.8 mph53%30.15 "Hg10 mi
4:53 PM60 °FSunny.9 mph53%30.14 "Hg10 mi
3:53 PM60 °FScattered clouds.7 mph46%30.14 "Hg10 mi
2:53 PM60 °FSunny.9 mph47%30.13 "Hg10 mi
1:53 PM59 °FScattered clouds.N/A60%30.12 "Hg10 mi
12:53 PM58 °FScattered clouds.6 mph60%30.12 "Hg10 mi
11:53 AM54 °FCloudy.5 mph77%30.12 "Hg10 mi
10:53 AM52 °FLight rain. Mostly cloudy.6 mph86%30.11 "Hg10 mi
9:53 AM50 °FLight rain. Overcast.7 mph89%30.11 "Hg10 mi
8:53 AM51 °FOvercast.9 mph80%30.09 "Hg10 mi
Weather by CustomWeather, © 2016

See weather overviewHow to use our weather pages